Weather History for Big Rapids, MI

Change the Weather History Date:

Thursday, October 7, 2010

  Actual Average Record
Temperature  
Mean Temperature 53 °F -  
Max Temperature 69 °F 60 °F 84 °F (2007)
Min Temperature 37 °F 38 °F 24 °F (2001)
Degree Days  
Heating Degree Days 12    
Growing Degree Days 3 (Base 50)    
Moisture  
Dew Point 42 °F    
Average Humidity 74    
Maximum Humidity 100    
Minimum Humidity 33    
Precipitation  
Precipitation 0.00 in - - ()
Sea Level Pressure  
Sea Level Pressure 29.99 in    
Wind  
Wind Speed 4 mph (NW)    
Max Wind Speed 15 mph    
Max Gust Speed 21 mph    
Visibility 9 miles    
Events      
Averages and records for this station are not official NWS values.
T = Trace of Precipitation, MM = Missing Value Source: NWS Daily Summary

Daily Weather History Graph

Daily Weather History Graph

Search for Another Location

Airport:

Trip Planner

Search our weather history database for the weather conditions in past years. The results will help you decide how hot, cold, wet, or windy it might be!

Date:

Astronomy

Oct. 07, 2010 Rise Set
Actual Time 7:46 AM EDT 7:12 PM EDT
Civil Twilight 7:17 AM EDT 7:40 PM EDT
Nautical Twilight 6:44 AM EDT 8:14 PM EDT
Astronomical Twilight 6:11 AM EDT 8:47 PM EDT
Moon 7:38 AM EDT (10/7) 6:45 PM EDT (10/7)
Length of Visible Light 12h 23m
Length of Day
11h 25m
Waning Crescent, 0% of the Moon is Illuminated
Oct 7
Waning Crescent
Oct 7
New
Oct 14
First Quarter
Oct 22
Full
Oct 30
Last Quarter

Hourly Weather History & Observations

Time (EDT) Temp. Windchill Dew Point Humidity Pressure Visibility Wind Dir Wind Speed Gust Speed Precip Events Conditions
12:14 AM 48.2 °F - 44.6 °F 87% 29.93 in 10.0 mi Calm Calm - N/A   Clear
12:34 AM 46.4 °F - 42.8 °F 87% 29.94 in 10.0 mi Calm Calm - N/A   Clear
12:55 AM 44.6 °F - 42.8 °F 93% 29.94 in 10.0 mi Calm Calm - N/A   Clear
1:14 AM 44.6 °F 43.1 °F 42.8 °F 93% 29.94 in 10.0 mi WNW 3.5 mph - N/A   Clear
1:35 AM 44.6 °F - 42.8 °F 93% 29.94 in 10.0 mi Calm Calm - N/A   Clear
1:54 AM 46.4 °F 44.3 °F 44.6 °F 93% 29.94 in 10.0 mi NW 4.6 mph - N/A   Clear
2:15 AM 42.8 °F - 42.8 °F 100% 29.95 in 10.0 mi Calm Calm - N/A   Clear
2:34 AM 44.6 °F - 42.8 °F 93% 29.95 in 10.0 mi Calm Calm - N/A   Clear
2:54 AM 42.8 °F - 41.0 °F 93% 29.95 in 10.0 mi Calm Calm - N/A   Clear
3:15 AM 42.8 °F - 42.8 °F 100% 29.95 in 5.0 mi Calm Calm - N/A   Clear
3:34 AM 42.8 °F - 42.8 °F 100% 29.95 in 5.0 mi Calm Calm - N/A   Clear
3:55 AM 41.0 °F - 41.0 °F 100% 29.94 in 10.0 mi Calm Calm - N/A   Clear
4:14 AM 39.2 °F - 39.2 °F 100% 29.94 in 2.5 mi Calm Calm - N/A   Clear
4:35 AM 39.2 °F - 39.2 °F 100% 29.95 in 4.0 mi Calm Calm - N/A   Clear
4:54 AM 37.4 °F - 37.4 °F 100% 29.95 in 1.0 mi Calm Calm - N/A   Mist
5:15 AM 39.2 °F - 39.2 °F 100% 29.95 in 1.2 mi Calm Calm - N/A   Mist
5:34 AM 37.4 °F - 37.4 °F 100% 29.95 in 7.0 mi Calm Calm - N/A   Clear
5:55 AM 37.4 °F - 37.4 °F 100% 29.96 in 2.5 mi Calm Calm - N/A   Clear
6:14 AM 39.2 °F - 39.2 °F 100% 29.96 in 10.0 mi Calm Calm - N/A   Clear
6:35 AM 37.4 °F - 37.4 °F 100% 29.96 in 10.0 mi Calm Calm - N/A   Clear
6:55 AM 37.4 °F - 37.4 °F 100% 29.96 in 7.0 mi Calm Calm - N/A   Clear
7:15 AM 39.2 °F - 39.2 °F 100% 29.96 in 4.0 mi Calm Calm - N/A   Clear
7:35 AM 39.2 °F - 39.2 °F 100% 29.96 in 10.0 mi Calm Calm - N/A   Clear
7:54 AM 39.2 °F - 39.2 °F 100% 29.97 in 5.0 mi Calm Calm - N/A   Clear
8:15 AM 39.2 °F - 39.2 °F 100% 29.98 in 4.0 mi Calm Calm - N/A   Clear
8:34 AM 42.8 °F - 42.8 °F 100% 29.98 in 7.0 mi Calm Calm - N/A   Clear
8:55 AM 48.2 °F - 48.2 °F 100% 29.99 in 10.0 mi WNW 6.9 mph - N/A   Clear
9:14 AM 51.8 °F - 46.4 °F 82% 30.01 in 10.0 mi WNW 9.2 mph - N/A   Clear
9:35 AM 53.6 °F - 44.6 °F 72% 30.02 in 10.0 mi NW 9.2 mph 17.3 mph N/A   Clear
9:54 AM 55.4 °F - 44.6 °F 67% 30.02 in 10.0 mi NW 10.4 mph 16.1 mph N/A   Clear
10:15 AM 57.2 °F - 44.6 °F 63% 30.03 in 10.0 mi NW 12.7 mph 17.3 mph N/A   Clear
10:34 AM 57.2 °F - 44.6 °F 63% 30.03 in 10.0 mi NW 12.7 mph 19.6 mph N/A   Clear
10:55 AM 59.0 °F - 44.6 °F 59% 30.04 in 10.0 mi NW 13.8 mph 20.7 mph N/A   Clear
11:14 AM 60.8 °F - 44.6 °F 55% 30.04 in 10.0 mi NW 13.8 mph 20.7 mph N/A   Clear
11:34 AM 60.8 °F - 44.6 °F 55% 30.04 in 10.0 mi NW 8.1 mph - N/A   Clear
11:54 AM 62.6 °F - 44.6 °F 52% 30.04 in 10.0 mi NNW 10.4 mph 16.1 mph N/A   Clear
12:14 PM 62.6 °F - 44.6 °F 52% 30.04 in 10.0 mi NW 8.1 mph - N/A   Clear
12:34 PM 64.4 °F - 42.8 °F 45% 30.04 in 10.0 mi NNW 9.2 mph 16.1 mph N/A   Clear
12:55 PM 64.4 °F - 42.8 °F 45% 30.04 in 10.0 mi NW 12.7 mph 16.1 mph N/A   Clear
1:14 PM 66.2 °F - 42.8 °F 43% 30.04 in 10.0 mi WNW 15.0 mph - N/A   Clear
1:35 PM 66.2 °F - 42.8 °F 43% 30.04 in 10.0 mi WNW 11.5 mph - N/A   Clear
1:54 PM 66.2 °F - 42.8 °F 43% 30.04 in 10.0 mi NW 11.5 mph 16.1 mph N/A   Clear
2:14 PM 66.2 °F - 42.8 °F 43% 30.04 in 10.0 mi WNW 12.7 mph 20.7 mph N/A   Clear
2:35 PM 68.0 °F - 42.8 °F 40% 30.03 in 10.0 mi WNW 10.4 mph 16.1 mph N/A   Clear
2:54 PM 68.0 °F - 41.0 °F 37% 30.02 in 10.0 mi NW 10.4 mph - N/A   Clear
3:15 PM 69.8 °F - 39.2 °F 33% 30.02 in 10.0 mi NNW 10.4 mph 18.4 mph N/A   Clear
3:34 PM 69.8 °F - 39.2 °F 33% 30.02 in 10.0 mi NW 12.7 mph 17.3 mph N/A   Clear
3:55 PM 68.0 °F - 39.2 °F 35% 30.02 in 10.0 mi West 9.2 mph 16.1 mph N/A   Clear
4:14 PM 68.0 °F - 39.2 °F 35% 30.02 in 10.0 mi NW 10.4 mph - N/A   Clear
4:35 PM 68.0 °F - 37.4 °F 33% 30.02 in 10.0 mi NW 11.5 mph 16.1 mph N/A   Clear
4:54 PM 68.0 °F - 39.2 °F 35% 30.02 in 10.0 mi WNW 11.5 mph - N/A   Clear
5:15 PM 66.2 °F - 39.2 °F 37% 30.02 in 10.0 mi West 11.5 mph - N/A   Clear
5:34 PM 66.2 °F - 37.4 °F 35% 30.02 in 10.0 mi West 10.4 mph - N/A   Clear
5:55 PM 64.4 °F - 37.4 °F 37% 30.02 in 10.0 mi West 11.5 mph - N/A   Clear
6:14 PM 64.4 °F - 37.4 °F 37% 30.02 in 10.0 mi WNW 9.2 mph - N/A   Clear
6:35 PM 62.6 °F - 39.2 °F 42% 30.03 in 10.0 mi West 8.1 mph - N/A   Clear
6:55 PM 59.0 °F - 39.2 °F 48% 30.03 in 10.0 mi West 4.6 mph - N/A   Clear
7:14 PM 57.2 °F - 39.2 °F 51% 30.04 in 10.0 mi West 4.6 mph - N/A   Clear
7:35 PM 53.6 °F - 39.2 °F 58% 30.05 in 10.0 mi West 5.8 mph - N/A   Clear
7:54 PM 51.8 °F - 39.2 °F 62% 30.05 in 10.0 mi West 5.8 mph - N/A   Clear
8:15 PM 48.2 °F - 39.2 °F 71% 30.06 in 10.0 mi West 3.5 mph - N/A   Clear
8:34 PM 46.4 °F - 39.2 °F 76% 30.06 in 10.0 mi Calm Calm - N/A   Clear
8:55 PM 44.6 °F - 39.2 °F 81% 30.07 in 10.0 mi Calm Calm - N/A   Clear
9:14 PM 44.6 °F - 39.2 °F 81% 30.07 in 10.0 mi Calm Calm - N/A   Clear
9:35 PM 42.8 °F - 37.4 °F 81% 30.07 in 10.0 mi Calm Calm - N/A   Clear
9:54 PM 39.2 °F - 37.4 °F 93% 30.07 in 10.0 mi Calm Calm - N/A   Clear
10:15 PM 41.0 °F - 39.2 °F 93% 30.07 in 10.0 mi Calm Calm - N/A   Clear
10:34 PM 39.2 °F - 37.4 °F 93% 30.06 in 10.0 mi Calm Calm - N/A   Clear
10:54 PM 39.2 °F - 37.4 °F 93% 30.06 in 10.0 mi Calm Calm - N/A   Clear
11:14 PM 37.4 °F - 37.4 °F 100% 30.06 in 10.0 mi Calm Calm - N/A   Clear
11:34 PM 37.4 °F - 37.4 °F 100% 30.06 in 10.0 mi Calm Calm - N/A   Clear
11:55 PM 37.4 °F - 37.4 °F 100% 30.06 in 10.0 mi Calm Calm - N/A   Clear